Вернуться в каталог

OPS 0856

АктивенВоенныеPO
NORAD 2403·PAYLOAD·🇺🇸 United States

Запущен Aug 19, 1966 с Vandenberg Space Force Base

Loading…

Ближайшие Пролёты (ближайшие 24 часа)

TLE

СвежийSource: Space-Track

Эпоха: Sep 14, 2026, 11:27 UTC

1 02403U 66077A   26257.47742238 -.00000017  00000-0 -92095-2 0  9991
2 02403  90.3281 277.4731 0006131 357.8598   2.2226  8.59841246534138

Отслеживайте OPS 0856 в реальном времени с AllMySat

Download on the App Store